{"data":{"norad_id":36588,"epoch":"2026-09-20T00:47:57.680736Z","epoch_age_seconds":65942,"freshness":"FRESH","line1":"1 36588U 10023A   26263.03330649 -.00000005  00000+0  10296-3 0  9999","line2":"2 36588 100.4285  89.3658 0017885  59.5162  92.1869 13.16058305783249","mean_motion":13.16058305,"eccentricity":0.0017885,"inclination_deg":100.4285,"raan_deg":89.3658,"arg_perigee_deg":59.5162,"mean_anomaly_deg":92.1869,"bstar":0.00010296,"rev_number":78324,"period_min":109.41764468406,"perigee_km":1186.2601695655,"apogee_km":1213.3664979093,"semimajor_km":7577.9503337374,"source":"CELESTRAK","updated_at":"2026-09-20T09:00:13.751300Z"}}